Satellite-Ground Cal/Val Site Overpasses Predictions

Prediction of Satellite NPP Overpassing Cal/Val Site: Antarctic Dome C

Ground Cal/Val Site Location: Latitude: -75.10, Longitude: 123.35; Satellite-Ground Site NADIR distance within 100 km.

Table of predicted overpasses for the next 14.0 days since TLE Epoch: 11/17/2017
Interval Starting Time Ending Time Minimum Distance Time Minimum Distance (km)
1 11/18/2017 15:01:44 11/18/2017 15:02:08 11/18/2017 15:01:56 59.05
2 11/19/2017 14:42:54 11/19/2017 14:43:19 11/19/2017 14:43:07 50.27
3 11/20/2017 07:44:35 11/20/2017 07:44:54 11/20/2017 07:44:44 74.58
4 11/21/2017 07:25:42 11/21/2017 07:26:09 11/21/2017 07:25:55 33.34
5 11/23/2017 15:08:08 11/23/2017 15:08:15 11/23/2017 15:08:12 96.91
6 11/24/2017 14:49:06 11/24/2017 14:49:35 11/24/2017 14:49:21 14.43
7 11/26/2017 07:31:56 11/26/2017 07:32:26 11/26/2017 07:32:11 3.50
8 11/29/2017 14:55:22 11/29/2017 14:55:51 11/29/2017 14:55:36 22.12
9 11/30/2017 14:36:40 11/30/2017 14:36:55 11/30/2017 14:36:47 85.06


NCC Satellite Cal/Val Overpasses Prediction Service
